[[{"header":{"parameterUnit":"m.s-1","parameterCategory":1,"la1":30.2992,"la2":30.254,"lo1":-89.0895,"lo2":-89.0443,"dy":0.0025,"dx":0.0025,"nx":19,"ny":19,"refTime":"2026-03-10T03:00:00:Z","depth":0,"parameterNumber":2,"parameterNumberName":"U-component_of_WINDS"},"data":[0,0,0,-2.5054,-2.5056,-2.5125,-2.5126,-2.5211,-2.5211,0,0,0,0,0,0,0,0,0,0,0,-2.5032,-2.5032,-2.5054,-2.5056,-2.5125,-2.5126,-2.521,-2.5211,0,0,0,0,0,0,0,0,0,0,0,-2.5032,-2.5032,-2.5033,-2.5056,-2.5125,-2.5126,-2.521,-2.5159,0,0,0,0,0,0,0,0,0,0,-2.5092,-2.507,-2.5032,-2.5033,-2.5056,-2.5125,-2.5126,-2.5157,-2.5162,-2.5178,0,-2.5191,0,-2.5203,-2.5217,-2.5217,0,0,0,-2.5057,-2.5065,-2.5086,-2.5033,-2.5057,-2.5125,-2.5094,-2.516,-2.5166,-2.5185,-2.5193,-2.5196,-2.5204,-2.5217,-2.5218,-2.5304,-2.5304,0,0,-2.5053,-2.5043,-2.5081,-2.509,-2.5079,-2.5092,-2.5096,-2.5164,-2.5171,-2.5193,-2.5198,-2.5206,-2.5218,-2.5219,-2.5303,-2.5304,0,0,0,-2.5041,-2.504,-2.5059,-2.5086,-2.5099,-2.5094,-2.5099,-2.5168,-2.5175,-2.5199,-2.5207,-2.5218,-2.5219,-2.5303,-2.5303,-2.531,0,0,0,-2.5039,-2.5034,-2.5058,-2.5052,-2.5098,-2.5135,-2.5102,-2.517,-2.5178,-2.5206,-2.5218,-2.522,-2.5303,-2.5303,-2.5309,-2.5314,0,0,0,-2.5028,-2.5032,-2.5042,-2.5052,-2.5081,-2.5134,-2.5145,-2.5172,-2.5183,-2.5217,-2.522,-2.5302,-2.5303,-2.5308,-2.5313,-2.5333,0,0,0,-2.5013,-2.5047,-2.5042,-2.5083,-2.5081,-2.5138,-2.5144,-2.5187,-2.5218,-2.5219,-2.5303,-2.5303,-2.5308,-2.5312,-2.5332,-2.5347,-2.5353,0,0,-2.505,-2.5051,-2.5076,-2.5074,-2.5129,-2.5128,-2.5185,-2.5222,-2.5234,-2.5279,-2.5282,-2.5309,-2.5313,-2.5333,-2.5391,-2.5396,0,0,0,-2.5085,-2.5102,-2.5119,-2.5148,-2.5177,-2.5203,-2.5232,-2.5246,-2.5285,-2.5256,-2.5323,-2.5326,-2.5338,-2.5345,-2.5349,-2.5359,-2.5307,-2.5307,-2.5307,-2.5123,-2.5137,-2.5179,-2.5201,-2.5229,-2.5259,-2.5283,-2.5306,-2.5313,-2.5328,-2.5341,-2.5375,-2.5384,-2.5387,-2.5397,-2.5352,-2.5352,-2.5352,-2.5352,-2.5177,-2.5204,-2.5212,-2.5255,-2.527,-2.5307,-2.5337,-2.5341,-2.5376,-2.5367,-2.5378,-2.5365,-2.5391,-2.5401,-2.5353,-2.5352,-2.5352,-2.5352,-2.5352,-2.5202,-2.5217,-2.5234,-2.5277,-2.5308,-2.533,-2.5364,-2.5376,-2.5388,-2.54,-2.5414,-2.5414,-2.5414,-2.5406,-2.5406,-2.5406,-2.5406,-2.5406,-2.5406,-2.5221,-2.5239,-2.5266,-2.5301,-2.532,-2.5348,-2.5379,-2.5399,-2.5424,-2.543,-2.543,-2.5434,-2.5392,-2.538,-2.5408,-2.5408,-2.5408,-2.5408,-2.5407,-2.5268,-2.526,-2.5301,-2.5321,-2.5362,-2.5392,-2.5408,-2.5447,-2.5465,-2.5481,-2.5483,-2.545,-2.5452,-2.5449,-2.5439,-2.5481,-2.5481,-2.5481,-2.5481,-2.5288,-2.529,-2.5335,-2.5366,-2.5398,-2.5417,-2.5462,-2.5487,-2.5511,-2.5523,-2.5519,-2.5508,-2.5504,-2.5508,-2.5504,-2.5494,-2.555,-2.555,-2.555,-2.5317,-2.5323,-2.536,-2.5383,-2.5417,-2.5445,-2.5488,-2.5522,-2.5548,-2.5553,-2.5532,-2.5529,-2.5511,-2.5505,-2.5507,-2.55,-2.5484,0,0]},{"header":{"parameterUnit":"m.s-1","parameterCategory":1,"la1":30.2992,"la2":30.254,"lo1":-89.0895,"lo2":-89.0443,"dy":0.0025,"dx":0.0025,"nx":19,"ny":19,"refTime":"2026-03-10T03:00:00:Z","depth":0,"parameterNumber":3,"parameterNumberName":"V-component_of_WINDS"},"data":[0,0,0,3.3807,3.381,3.3915,3.3915,3.4045,3.4046,0,0,0,0,0,0,0,0,0,0,0,3.3771,3.3772,3.3807,3.381,3.3915,3.3915,3.4045,3.4046,0,0,0,0,0,0,0,0,0,0,0,3.3771,3.3772,3.3773,3.381,3.3915,3.3915,3.4045,3.3968,0,0,0,0,0,0,0,0,0,0,3.3866,3.3828,3.3772,3.3773,3.3811,3.3915,3.3915,3.3964,3.3972,3.3995,0,3.4012,0,3.4031,3.4055,3.4055,0,0,0,3.3814,3.382,3.3853,3.3773,3.3812,3.3914,3.3869,3.3969,3.3978,3.4006,3.4014,3.4019,3.4033,3.4055,3.4056,3.4171,3.4171,0,0,3.3808,3.3788,3.3847,3.3859,3.384,3.3865,3.3872,3.3975,3.3982,3.4014,3.4022,3.4035,3.4056,3.4057,3.4171,3.4171,0,0,0,3.3789,3.3784,3.3814,3.3854,3.3873,3.3868,3.3876,3.3978,3.3989,3.4024,3.4037,3.4057,3.4058,3.417,3.4171,3.4169,0,0,0,3.3785,3.3772,3.3811,3.38,3.3871,3.3926,3.3876,3.3982,3.3994,3.4036,3.4057,3.406,3.417,3.4171,3.4168,3.4172,0,0,0,3.3766,3.377,3.3783,3.3799,3.3843,3.3925,3.3943,3.3985,3.4003,3.4055,3.406,3.417,3.417,3.4168,3.4171,3.4199,0,0,0,3.374,3.3779,3.3783,3.3832,3.3842,3.3922,3.3942,3.4003,3.4048,3.4058,3.417,3.4171,3.4168,3.417,3.4198,3.4219,3.4225,0,0,3.3778,3.3783,3.3814,3.382,3.3895,3.3908,3.3983,3.4043,3.4067,3.4136,3.4139,3.4169,3.4171,3.4198,3.4265,3.427,0,0,0,3.3819,3.3841,3.3865,3.3907,3.3954,3.3996,3.4047,3.407,3.4129,3.4097,3.4186,3.4188,3.4205,3.4216,3.422,3.4237,3.4175,3.4174,3.4174,3.3844,3.3873,3.3927,3.3969,3.401,3.4063,3.41,3.4141,3.4157,3.4178,3.4198,3.4235,3.4248,3.4251,3.4269,3.4211,3.4211,3.4211,3.4211,3.3904,3.3941,3.3964,3.4024,3.4056,3.4108,3.4163,3.4173,3.4228,3.4221,3.4238,3.4229,3.4255,3.4273,3.4211,3.4211,3.4211,3.4211,3.4211,3.3925,3.3948,3.3975,3.4041,3.4089,3.4131,3.4183,3.421,3.4235,3.4251,3.4278,3.4279,3.4284,3.4262,3.4262,3.4262,3.4262,3.4263,3.4263,3.3936,3.3967,3.4007,3.4062,3.4095,3.414,3.4197,3.423,3.4274,3.429,3.429,3.4307,3.4252,3.4238,3.4265,3.4264,3.4264,3.4264,3.4264,3.3988,3.3981,3.4043,3.4075,3.4145,3.4193,3.4226,3.4293,3.4324,3.435,3.4364,3.4318,3.4325,3.4322,3.4311,3.4355,3.4355,3.4355,3.4355,3.4007,3.4013,3.4084,3.4135,3.4188,3.4225,3.4299,3.4345,3.4391,3.4414,3.4411,3.4399,3.4394,3.4404,3.44,3.439,3.4453,3.4453,3.4453,3.4042,3.4055,3.4111,3.4155,3.4213,3.4263,3.4333,3.4393,3.4444,3.4458,3.4432,3.4428,3.4409,3.44,3.4413,3.4405,3.4388,0,0]}]]